This is the latest recevied weather packets stored in our database for station/object KC3AWA. If no packets are shown the sender has not sent any weather packets the latest 10 day(s).
| Time | Temp. | Humidity | Pressure | Rain* | Wind** | Luminosity | Snow |
|---|---|---|---|---|---|---|---|
| 1777876367 | 7.78° C | 66% | 1012.3 hPa | 0 mm | - | 0 W/m² | - |
| 1777876062 | 7.22° C | 66% | 1012.5 hPa | 0 mm | - | 0 W/m² | - |
| 1777875758 | 7.22° C | 66% | 1012.5 hPa | 0 mm | - | 0 W/m² | - |
| 1777875455 | 7.22° C | 67% | 1012.5 hPa | 0 mm | - | 0 W/m² | - |
| 1777875151 | 7.22° C | 69% | 1012.4 hPa | 0 mm | - | 0 W/m² | - |
| 1777874849 | 7.22° C | 67% | 1012.6 hPa | 0 mm | - | 0 W/m² | - |
| 1777874544 | 7.22° C | 67% | 1012.6 hPa | 0 mm | - | 0 W/m² | - |
| 1777874242 | 7.22° C | 69% | 1012.6 hPa | 0 mm | - | 0 W/m² | - |
| 1777873939 | 7.22° C | 69% | 1012.8 hPa | 0 mm | - | 0 W/m² | - |
| 1777873636 | 7.78° C | 68% | 1012.7 hPa | 0 mm | - | 0 W/m² | - |
| 1777873333 | 7.78° C | 68% | 1012.9 hPa | 0 mm | - | 0 W/m² | - |
| 1777873030 | 7.78° C | 63% | 1013 hPa | 0 mm | - | 0 W/m² | - |
| 1777872727 | 7.78° C | 63% | 1013 hPa | 0 mm | - | 0 W/m² | - |
| 1777872424 | 7.78° C | 63% | 1012.9 hPa | 0 mm | - | 0 W/m² | - |
| 1777872122 | 7.78° C | 61% | 1013.2 hPa | 0 mm | - | 0 W/m² | - |
| 1777871819 | 7.78° C | 61% | 1013.2 hPa | 0 mm | - | 0 W/m² | - |
| 1777871515 | 7.78° C | 59% | 1013.2 hPa | 0 mm | - | 0 W/m² | - |
| 1777871212 | 8.33° C | 59% | 1013.2 hPa | 0 mm | - | 0 W/m² | - |
| 1777870909 | 8.33° C | 59% | 1013.3 hPa | 0 mm | - | 0 W/m² | - |
| 1777870606 | 8.33° C | 58% | 1013.1 hPa | 0 mm | - | 0 W/m² | - |
| 1777870306 | 8.33° C | 58% | 1013.4 hPa | 0 mm | - | 0 W/m² | - |
| 1777870004 | 8.33° C | 57% | 1013.3 hPa | 0 mm | - | 0 W/m² | - |
| 1777869701 | 8.33° C | 56% | 1013.4 hPa | 0 mm | - | 0 W/m² | - |
| 1777869398 | 8.33° C | 57% | 1013.4 hPa | 0 mm | - | 0 W/m² | - |
| 1777869095 | 8.33° C | 58% | 1013.2 hPa | 0 mm | - | 0 W/m² | - |
* Rain latest hour (hover to see other rain measurements)
** Current wind speed in m/s (hover to see current wind gust speed)